IW2NIA-3 Weather Reports


Display with metric or nautical units.
time (UTC)temp
F
wind
direction
speed
MPH
gust
MPH
rain 1hr
in
rain 24hr
in
rain mn
in
humidity
%
barometer
mb
20260504110338 67 317 3.0 11.0 0.00 0.00 0.00 45 1017.3
20260504100343 66 267 3.0 12.0 0.00 0.00 0.00 44 1017.6
20260504081838 65 346 2.0 4.0 0.00 0.00 0.00 48 1017.5
20260504080328 64 313 2.0 5.0 0.00 0.00 0.00 47 1017.5
20260504070329 63 5 1.0 6.0 0.00 0.00 0.00 49 1017.2
20260504050332 53 64 0.0 0.0 0.00 0.00 0.00 79 1016.5
20260504044845 53 64 0.0 0.0 0.00 0.00 0.00 79 1016.3
20260504043334 52 64 0.0 0.0 0.00 0.00 0.00 79 1016.1
20260504041832 52 64 1.0 3.0 0.00 0.00 0.00 79 1016.0
20260504040329 52 55 0.0 3.0 0.00 0.00 0.00 79 1016.1
20260504034842 52 51 2.0 2.0 0.00 0.00 0.00 78 1016.1
20260504033341 52 51 0.0 2.0 0.00 0.00 0.00 77 1016.1
20260504031840 52 47 1.0 2.0 0.00 0.00 0.00 79 1016.0
20260504030333 52 47 0.0 2.0 0.00 0.00 0.00 81 1016.1
20260504024827 53 36 2.0 4.0 0.00 0.00 0.00 81 1016.1
20260504023342 53 280 0.0 0.0 0.00 0.00 0.00 80 1016.2
20260504021833 54 280 0.0 0.0 0.00 0.00 0.00 78 1016.2
20260504020328 54 280 0.0 0.0 0.00 0.00 0.00 76 1016.2
20260504014844 54 280 0.0 0.0 0.00 0.00 0.00 76 1016.2
20260504013343 55 277 0.0 0.0 0.00 0.00 0.00 76 1016.2
20260504011837 55 277 0.0 0.0 0.00 0.00 0.00 74 1016.1
20260504010331 55 277 0.0 0.0 0.00 0.00 0.00 75 1016.2
20260504004841 56 277 0.0 0.0 0.00 0.00 0.00 74 1016.3
20260504003338 56 277 0.0 0.0 0.00 0.00 0.00 74 1016.5
20260504001830 56 277 0.0 0.0 0.00 0.00 0.00 74 1016.6
20260504000342 56 277 0.0 0.0 0.00 0.00 0.00 74 1016.7
20260503234837 56 277 0.0 0.0 0.00 0.00 0.00 74 1016.8
20260503233332 57 277 0.0 0.0 0.00 0.00 0.00 74 1016.9
20260503231845 57 277 0.0 0.0 0.00 0.00 0.00 74 1017.0
20260503230336 57 277 0.0 0.0 0.00 0.00 0.00 73 1017.0
20260503224830 57 277 0.0 0.0 0.00 0.00 0.00 74 1017.1
20260503223346 57 277 0.0 0.0 0.00 0.00 0.00 73 1017.1
20260503221841 58 277 0.0 0.0 0.00 0.00 0.00 70 1017.1
20260503220333 59 277 0.0 0.0 0.00 0.00 0.00 67 1017.0
20260503214844 60 277 0.0 0.0 0.00 0.00 0.00 65 1016.9
20260503213341 60 277 0.0 0.0 0.00 0.00 0.00 65 1016.9
20260503211834 61 277 0.0 0.0 0.00 0.00 0.00 64 1016.7
20260503210343 61 277 0.0 0.0 0.00 0.00 0.00 61 1016.8
20260503204830 62 277 0.0 0.0 0.00 0.00 0.00 60 1016.7
20260503203328 62 277 0.0 0.0 0.00 0.00 0.00 60 1016.6
20260503201846 62 277 0.0 0.0 0.00 0.00 0.00 59 1016.7
20260503200339 62 277 0.0 0.0 0.00 0.00 0.00 54 1016.5
20260503194832 63 277 0.0 0.0 0.00 0.00 0.00 53 1016.3
20260503193329 63 275 0.0 0.0 0.00 0.00 0.00 50 1016.2
20260503191845 64 275 1.0 2.0 0.00 0.00 0.00 48 1016.0
20260503190345 65 275 1.0 5.0 0.00 0.00 0.00 47 1015.9
20260503184840 66 263 1.0 6.0 0.00 0.00 0.00 46 1015.8
20260503183338 66 246 2.0 6.0 0.00 0.00 0.00 53 1015.8
20260503181830 67 265 0.0 0.0 0.00 0.00 0.00 56 1015.7
20260503180340 68 264 1.0 2.0 0.00 0.00 0.00 57 1015.7
20260503174836 69 257 0.0 0.0 0.00 0.00 0.00 47 1015.6
20260503173329 70 257 0.0 0.0 0.00 0.00 0.00 45 1015.6
20260503171842 70 257 0.0 0.0 0.00 0.00 0.00 42 1015.7
20260503170336 70 257 0.0 0.0 0.00 0.00 0.00 41 1015.6
20260503150347 71 217 1.0 4.0 0.00 0.00 0.00 44 1016.5
20260503130333 72 281 3.0 6.0 0.00 0.00 0.00 45 1017.8